Location: Bourg-d�Oueil
(42.8588°N, 0.4991°E)
Time: 13:48:14
(UTC+00:00)

Cosmos 2263 Rocket - Pass Details

Date: 16 June 2021
Orbit: 822 x 850 km, 71.0° (Epoch: 31 July)

Event Time Altitude Azimuth Distance (km) Brightness Sun altitude
Rises 20:47:40 0° 331° (NNW) 3,418 7.1 -10.5°
Reaches altitude 10° 20:50:10 10° 327° (NNW) 2,481 6.1 -10.8°
Maximum altitude 20:55:42 54° 251° (WSW) 1,024 2.8 -11.5°
Drops below altitude 10° 21:01:12 10° 176° (S) 2,467 4.2 -12.2°
Enters shadow 21:01:20 - 175° (S) 2,513 4.2 -12.2°
